KJ4YRE Weather Reports


time (UTC)temp
C
wind
direction
speed
KPH
gust
KPH
rain 1hr
cm
rain 24hr
cm
rain mn
cm
humidity
%
barometer
mb
20260505111505 15 248 4.8 12.9 0.00 0.00 0.00 81 1016.4
20260505111006 15 248 3.2 16.1 0.00 0.00 0.00 80 1016.3
20260505110505 15 234 8.0 14.5 0.00 0.00 0.00 81 1016.2
20260505102215 14 239 4.8 12.9 0.00 0.00 0.00 82 1016.1
20260505101505 15 224 4.8 14.5 0.00 0.00 0.00 81 1016.1
20260505101217 15 233 4.8 12.9 0.00 0.00 0.00 81 1016.0
20260505100507 15 248 4.8 12.9 0.00 0.00 0.00 81 1015.9
20260505100006 15 242 4.8 11.3 0.00 0.00 0.00 81 1015.9
20260505095716 15 211 3.2 19.3 0.00 0.00 0.00 80 1015.9
20260505095217 15 224 4.8 19.3 0.00 0.00 0.00 79 1015.7
20260505094504 15 248 8.0 16.1 0.00 0.00 0.00 79 1015.6
20260505094215 15 234 6.4 12.9 0.00 0.00 0.00 79 1015.6
20260505093506 15 245 8.0 20.9 0.00 0.00 0.00 78 1015.6
20260505093006 15 235 4.8 16.1 0.00 0.00 0.00 79 1015.6
20260505092505 15 249 4.8 16.1 0.00 0.00 0.00 78 1015.6
20260505092005 15 240 9.7 19.3 0.00 0.00 0.00 78 1015.6
20260505091505 15 232 8.0 19.3 0.00 0.00 0.00 78 1015.5
20260505091215 15 245 4.8 14.5 0.00 0.00 0.00 78 1015.5
20260505090507 15 251 8.0 16.1 0.00 0.00 0.00 78 1015.4
20260505090006 15 233 4.8 12.9 0.00 0.00 0.00 78 1015.3
20260505085715 16 278 4.8 14.5 0.00 0.00 0.00 77 1015.3
20260505085007 16 241 6.4 16.1 0.00 0.00 0.00 77 1015.3
20260505084506 16 247 6.4 19.3 0.00 0.00 0.00 77 1015.3
20260505084006 16 249 8.0 16.1 0.00 0.00 0.00 77 1015.4
20260505083504 16 255 8.0 19.3 0.00 0.00 0.00 76 1015.3
20260505083006 16 255 8.0 12.9 0.00 0.00 0.00 76 1015.4
20260505082504 16 242 3.2 14.5 0.00 0.00 0.00 76 1015.4
20260505082214 16 249 9.7 14.5 0.00 0.00 0.00 76 1015.4
20260505081505 16 201 8.0 20.9 0.00 0.00 0.00 76 1015.4
20260505081216 16 243 9.7 19.3 0.00 0.00 0.00 76 1015.4
20260505080505 16 234 6.4 16.1 0.00 0.00 0.00 76 1015.3
20260505080006 16 225 8.0 14.5 0.00 0.00 0.00 76 1015.2
20260505075505 16 254 4.8 14.5 0.00 0.00 0.00 76 1015.2
20260505075216 16 271 8.0 20.9 0.00 0.00 0.00 75 1015.2
20260505074504 16 224 4.8 22.5 0.00 0.00 0.00 76 1015.2
20260505074007 16 266 6.4 14.5 0.00 0.00 0.00 76 1015.2
20260505073506 16 256 4.8 9.7 0.00 0.00 0.00 76 1015.1
20260505073006 16 324 4.8 11.3 0.00 0.00 0.00 75 1015.0
20260505072504 16 231 9.7 22.5 0.00 0.00 0.00 75 1014.9
20260505072007 16 271 4.8 19.3 0.00 0.00 0.00 75 1014.9
20260505071505 16 253 9.7 24.1 0.00 0.00 0.00 76 1014.9
20260505071216 16 259 3.2 22.5 0.00 0.00 0.00 75 1014.9
20260505070507 16 233 8.0 14.5 0.00 0.00 0.00 75 1014.8
20260505070006 16 233 9.7 22.5 0.00 0.00 0.00 75 1014.8
20260505065506 16 214 8.0 19.3 0.00 0.00 0.00 75 1014.7
20260505065216 16 232 9.7 19.3 0.00 0.00 0.00 75 1014.7
20260505064505 16 233 6.4 16.1 0.00 0.00 0.00 74 1014.7
20260505064007 16 258 8.0 19.3 0.00 0.00 0.00 74 1014.8
20260505063717 17 232 4.8 16.1 0.00 0.00 0.00 74 1014.8
20260505063005 17 248 6.4 20.9 0.00 0.00 0.00 74 1014.7
20260505062505 17 226 6.4 16.1 0.00 0.00 0.00 73 1014.8
20260505062216 17 249 6.4 22.5 0.00 0.00 0.00 73 1014.8
20260505061505 17 249 4.8 22.5 0.00 0.00 0.00 73 1014.8
20260505061004 17 243 4.8 25.7 0.00 0.00 0.00 72 1014.8
20260505060506 17 231 9.7 25.7 0.00 0.00 0.00 71 1014.8
20260505060215 17 238 8.0 19.3 0.00 0.00 0.00 72 1014.8
20260505055504 17 62 3.2 19.3 0.00 0.00 0.00 72 1014.9
20260505055006 17 235 8.0 22.5 0.00 0.00 0.00 71 1014.8
20260505054716 17 233 9.7 25.7 0.00 0.00 0.00 72 1014.8
20260505054005 17 255 9.7 22.5 0.00 0.00 0.00 71 1014.8
20260505053505 17 254 6.4 22.5 0.00 0.00 0.00 73 1014.8
20260505053217 17 235 9.7 22.5 0.00 0.00 0.00 72 1014.9
20260505052716 17 234 9.7 20.9 0.00 0.00 0.00 72 1014.9
20260505052006 17 239 9.7 22.5 0.00 0.00 0.00 72 1014.8
20260505051505 17 189 4.8 16.1 0.00 0.00 0.00 72 1014.9
20260505051006 17 235 9.7 20.9 0.00 0.00 0.00 72 1014.8
20260505050716 17 212 4.8 20.9 0.00 0.00 0.00 72 1014.8
20260505041716 18 261 4.8 19.3 0.00 0.00 0.00 72 1014.7
20260505041006 18 248 4.8 20.9 0.00 0.00 0.00 71 1014.7
20260505040506 17 235 4.8 22.5 0.00 0.00 0.00 71 1014.7
20260505040221 17 211 4.8 16.1 0.00 0.00 0.00 71 1014.5
20260505035505 18 153 6.4 20.9 0.00 0.00 0.00 70 1014.4
20260505035215 18 228 6.4 12.9 0.00 0.00 0.00 69 1014.5
20260505034505 18 268 3.2 14.5 0.00 0.00 0.00 68 1014.5
20260505034006 18 232 6.4 22.5 0.00 0.00 0.00 67 1014.5
20260505033507 18 188 3.2 12.9 0.00 0.00 0.00 66 1014.4
20260505033007 18 170 3.2 22.5 0.00 0.00 0.00 65 1014.3
20260505032504 18 246 6.4 19.3 0.00 0.00 0.00 64 1014.4
20260505032217 18 218 4.8 22.5 0.00 0.00 0.00 63 1014.3
20260505031715 18 250 4.8 22.5 0.00 0.00 0.00 61 1014.3
20260505031006 18 191 3.2 20.9 0.00 0.00 0.00 60 1014.3
20260505030505 18 220 3.2 12.9 0.00 0.00 0.00 59 1014.3
20260505030006 18 201 4.8 12.9 0.00 0.00 0.00 59 1014.3
20260505025506 18 212 4.8 16.1 0.00 0.00 0.00 58 1014.3
20260505025216 17 240 1.6 8.0 0.00 0.00 0.00 60 1014.2
20260505024505 18 195 3.2 4.8 0.00 0.00 0.00 59 1014.1
20260505024005 18 237 3.2 9.7 0.00 0.00 0.00 58 1014.1
20260505023506 18 220 3.2 8.0 0.00 0.00 0.00 58 1014.1
20260505023006 18 177 4.8 9.7 0.00 0.00 0.00 58 1014.0
20260505022504 18 211 3.2 9.7 0.00 0.00 0.00 59 1014.0
20260505022216 18 201 1.6 8.0 0.00 0.00 0.00 59 1013.9
20260505021505 18 238 4.8 9.7 0.00 0.00 0.00 59 1013.8
20260505021216 18 227 3.2 11.3 0.00 0.00 0.00 59 1013.8
20260505020505 18 230 1.6 4.8 0.00 0.00 0.00 59 1013.8
20260505020005 18 158 1.6 8.0 0.00 0.00 0.00 58 1013.8
20260505015505 18 272 3.2 11.3 0.00 0.00 0.00 60 1013.8
20260505015004 18 223 3.2 11.3 0.00 0.00 0.00 57 1013.6
20260505014504 18 205 3.2 9.7 0.00 0.00 0.00 57 1013.6
20260505014008 18 226 1.6 9.7 0.00 0.00 0.00 58 1013.6
20260505013505 18 213 1.6 4.8 0.00 0.00 0.00 57 1013.6
20260505013007 18 211 3.2 9.7 0.00 0.00 0.00 56 1013.6
20260505012716 18 320 0.0 8.0 0.00 0.00 0.00 56 1013.6
20260505012006 18 221 1.6 4.8 0.00 0.00 0.00 56 1013.6
20260505011716 18 201 1.6 4.8 0.00 0.00 0.00 55 1013.5
20260505011217 18 192 1.6 4.8 0.00 0.00 0.00 57 1013.5
20260505010506 18 178 3.2 3.2 0.00 0.00 0.00 57 1013.4
20260505010217 18 174 1.6 4.8 0.00 0.00 0.00 57 1013.5
20260505005504 18 183 3.2 4.8 0.00 0.00 0.00 57 1013.5
20260505005007 18 198 3.2 8.0 0.00 0.00 0.00 57 1013.4
20260505004505 18 194 1.6 3.2 0.00 0.00 0.00 57 1013.4
20260505004008 18 191 1.6 4.8 0.00 0.00 0.00 56 1013.4
20260505003715 18 231 1.6 4.8 0.00 0.00 0.00 57 1013.4
20260505003006 19 209 1.6 4.8 0.00 0.00 0.00 55 1013.3
20260505002505 19 170 1.6 3.2 0.00 0.00 0.00 55 1013.3
20260505002007 20 212 1.6 4.8 0.00 0.00 0.00 54 1013.2
20260505001505 20 231 3.2 4.8 0.00 0.00 0.00 53 1013.1
20260505001005 20 240 1.6 8.0 0.00 0.00 0.00 52 1013.0
20260505000507 20 240 3.2 4.8 0.00 0.00 0.00 53 1013.0
20260505000218 20 231 1.6 3.2 0.00 0.00 0.00 52 1012.9
20260504235715 21 199 1.6 1.6 0.00 0.00 0.00 51 1012.9
20260504235006 21 237 1.6 4.8 0.00 0.00 0.00 49 1012.9
20260504234507 21 234 1.6 4.8 0.00 0.00 0.00 48 1012.9
20260504234006 22 222 1.6 4.8 0.00 0.00 0.00 46 1012.8
20260504233505 22 236 3.2 4.8 0.00 0.00 0.00 46 1012.8
20260504233007 22 239 3.2 8.0 0.00 0.00 0.00 44 1012.9
20260504232505 22 213 3.2 8.0 0.00 0.00 0.00 43 1012.8
20260504232005 23 237 4.8 11.3 0.00 0.00 0.00 42 1012.7
20260504231505 23 205 4.8 11.3 0.00 0.00 0.00 42 1012.6
20260504231005 23 259 4.8 12.9 0.00 0.00 0.00 41 1012.6
20260504230506 23 247 3.2 11.3 0.00 0.00 0.00 40 1012.5
20260504230007 23 219 4.8 11.3 0.00 0.00 0.00 40 1012.5
20260504225505 24 272 4.8 9.7 0.00 0.00 0.00 38 1012.5
20260504225006 25 219 4.8 11.3 0.00 0.00 0.00 37 1012.4
20260504224505 26 241 4.8 11.3 0.00 0.00 0.00 34 1012.3
20260504224007 25 279 3.2 12.9 0.00 0.00 0.00 34 1012.3
20260504223506 26 271 1.6 9.7 0.00 0.00 0.00 34 1012.3
20260504223007 26 245 6.4 9.7 0.00 0.00 0.00 33 1012.4
20260504222505 26 241 4.8 11.3 0.00 0.00 0.00 33 1012.4
20260504222005 26 244 4.8 8.0 0.00 0.00 0.00 33 1012.4
20260504221506 26 233 1.6 9.7 0.00 0.00 0.00 30 1012.4
20260504221005 26 234 4.8 11.3 0.00 0.00 0.00 30 1012.4
20260504220507 25 151 3.2 14.5 0.00 0.00 0.00 29 1012.3
20260504220006 26 243 3.2 12.9 0.00 0.00 0.00 31 1012.4
20260504215506 26 252 3.2 12.9 0.00 0.00 0.00 29 1012.3
20260504215215 26 227 3.2 22.5 0.00 0.00 0.00 29 1012.4
20260504214504 26 228 4.8 27.4 0.00 0.00 0.00 28 1012.4
20260504214217 26 255 8.0 24.1 0.00 0.00 0.00 30 1012.4
20260504213507 27 212 6.4 16.1 0.00 0.00 0.00 28 1012.3
20260504213006 27 300 6.4 16.1 0.00 0.00 0.00 27 1012.3
20260504212505 27 264 12.9 25.7 0.00 0.00 0.00 28 1012.3
20260504212007 27 286 4.8 14.5 0.00 0.00 0.00 29 1012.4
20260504211505 27 293 6.4 12.9 0.00 0.00 0.00 31 1012.4
20260504211217 27 283 3.2 11.3 0.00 0.00 0.00 31 1012.4
20260504210507 28 287 3.2 11.3 0.00 0.00 0.00 30 1012.4
20260504210006 27 237 4.8 11.3 0.00 0.00 0.00 31 1012.5
20260504205507 27 98 3.2 9.7 0.00 0.00 0.00 29 1012.4
20260504205005 27 169 0.0 11.3 0.00 0.00 0.00 30 1012.5
20260504204716 27 206 4.8 19.3 0.00 0.00 0.00 32 1012.6
20260504204005 27 11 4.8 12.9 0.00 0.00 0.00 30 1012.6
20260504203507 27 221 4.8 11.3 0.00 0.00 0.00 31 1012.6
20260504203217 27 93 3.2 9.7 0.00 0.00 0.00 31 1012.6
20260504202505 27 271 3.2 9.7 0.00 0.00 0.00 30 1012.7
20260504202005 26 273 4.8 11.3 0.00 0.00 0.00 30 1012.7
20260504201505 27 196 4.8 14.5 0.00 0.00 0.00 30 1012.8
20260504201005 27 200 3.2 12.9 0.00 0.00 0.00 30 1012.8
20260504200716 27 207 4.8 12.9 0.00 0.00 0.00 29 1012.9
20260504200006 27 285 1.6 14.5 0.00 0.00 0.00 29 1013.0
20260504195505 26 227 4.8 12.9 0.00 0.00 0.00 29 1013.2
20260504195005 26 75 3.2 11.3 0.00 0.00 0.00 30 1013.2
20260504194716 26 235 6.4 12.9 0.00 0.00 0.00 28 1013.3
20260504194005 25 232 6.4 14.5 0.00 0.00 0.00 30 1013.4
20260504193504 26 128 3.2 19.3 0.00 0.00 0.00 31 1013.4
20260504193005 25 284 4.8 19.3 0.00 0.00 0.00 30 1013.6
20260504192715 24 231 3.2 22.5 0.00 0.00 0.00 30 1013.7
20260504192217 25 243 4.8 22.5 0.00 0.00 0.00 28 1013.7
20260504191715 25 228 9.7 25.7 0.00 0.00 0.00 28 1013.7
20260504191005 25 260 6.4 20.9 0.00 0.00 0.00 31 1013.8
20260504190505 24 244 8.0 25.7 0.00 0.00 0.00 32 1013.9
20260504190216 25 253 6.4 19.3 0.00 0.00 0.00 32 1013.8
20260504185505 25 291 6.4 11.3 0.00 0.00 0.00 32 1013.8
20260504185006 25 26 1.6 11.3 0.00 0.00 0.00 34 1014.0
20260504184715 23 225 6.4 12.9 0.00 0.00 0.00 34 1014.0
20260504184214 24 269 8.0 20.9 0.00 0.00 0.00 33 1014.1
20260504183505 24 329 3.2 12.9 0.00 0.00 0.00 32 1014.1
20260504183007 24 207 3.2 11.3 0.00 0.00 0.00 33 1014.2
20260504182505 23 76 4.8 12.9 0.00 0.00 0.00 33 1014.4
20260504182005 24 321 3.2 11.3 0.00 0.00 0.00 33 1014.5
20260504181717 24 94 3.2 9.7 0.00 0.00 0.00 31 1014.5
20260504181006 23 56 3.2 14.5 0.00 0.00 0.00 35 1014.6
20260504180507 23 246 3.2 11.3 0.00 0.00 0.00 34 1014.6
20260504180006 23 233 3.2 19.3 0.00 0.00 0.00 36 1014.7
20260504175507 23 251 3.2 12.9 0.00 0.00 0.00 34 1014.8
20260504175216 23 245 4.8 19.3 0.00 0.00 0.00 34 1014.7
20260504174505 23 210 8.0 19.3 0.00 0.00 0.00 32 1014.8
20260504174005 25 329 3.2 12.9 0.00 0.00 0.00 30 1014.8
20260504173505 25 93 1.6 8.0 0.00 0.00 0.00 34 1014.9
20260504173007 25 94 1.6 20.9 0.00 0.00 0.00 31 1014.9
20260504172504 25 260 6.4 20.9 0.00 0.00 0.00 33 1015.1
20260504172006 25 281 4.8 12.9 0.00 0.00 0.00 32 1015.1
20260504171506 25 227 6.4 11.3 0.00 0.00 0.00 33 1015.1
20260504171006 23 72 3.2 12.9 0.00 0.00 0.00 34 1015.1
20260504170717 23 235 6.4 14.5 0.00 0.00 0.00 34 1015.2
20260504170216 23 118 4.8 20.9 0.00 0.00 0.00 32 1015.2
20260504151005 20 343 4.8 11.3 0.00 0.00 0.00 45 1016.5
20260504150509 20 77 3.2 14.5 0.00 0.00 0.00 46 1016.5
20260504141005 18 217 3.2 11.3 0.00 0.00 0.00 53 1016.8
20260504140505 18 196 1.6 4.8 0.00 0.00 0.00 54 1016.7
20260504130717 15 293 3.2 12.9 0.00 0.00 0.00 62 1017.3
20260504130216 15 358 6.4 16.1 0.00 0.00 0.00 63 1017.4
20260504120216 12 231 8.0 12.9 0.00 0.00 0.00 78 1017.9